The Dilly Family's Weather Page
McMurray, PA 15317   Weather
Using a La Crosse Technology Model 2315 Weather Station

  Local Radar

Local Radar

  Graphs, Details
Detailed Weather
Detailed Reports
Mobile Version of This Page
Brief Version of This Page
  Maps
Temperature
Heat Index
Windchill
Humidity
Radar
Dew Point
Wind
Visibility
Visible Satellite
Satellite
Fronts
Snow Depth
Jet Stream
Flight Rules
  Forecast Maps
Temperature Forecast
Maximum Temperature Forecast
Minimum Temperature Forecast
Dewpoint Forecast
Prevalent Weather
12Hr Probability of Precip.
Sky Cover
  Health Maps
UV Forecast
Air Quality
Peak Air Quality Index
  Weather Station
La Crosse Technology
 
 
Weather Underground PWS KPAMCMUR4
KPAMCMUR4 Dashboard
  Current Conditions [Select Refresh to Update]

Updated: 5:40am on 11/23/14

Currently:
45.6°

Clear
Overcast

High: 47.8° 
(3:47am) 
Low: 45.6° 
(4:55am)
Wind: 0 mph from the SSE
Gust: 0 mph
Today's High Wind: 14 mph (2:37am)
Humidity: 59%
Pressure: 30.06 in  (Steady) 
Pressure Rate: 0.005 in/hr
Dew Point: 32.1°
Wind Chill: 45.6°
Heat Index (feels like): 47.3°
Comfort Level: Cool
Temperature Rate:  -0.57°/hr
 
  5 Day Forecast
 
Sun Mon Tue Wed Thu
Clear Clear Clear Clear Clear
Chance Rain Chance Rain Mostly Cloudy Partly Cloudy Chance Snow
59° 64° 41° 41° 37°
52° 34° 25° 27° 23°

  Records and Normals
 
Temperature Forecast Normal Record
High 59° 49° 70°
(1999)
Low 52° 32° 16°
(2008)
 
  Almanac
Sunrise:  
7:16am
Moonrise: 
8:10am

Moon Phase:
0%

Sunset: 
4:58pm
Moonset:  
6:20pm
 
  Weather Underground     KPAMCMUR4

  Weather Advisories
No Warning
Full Advisory Text...
  Weather Map

 
  Web Cams   (Northerly View)
Northerly view toward Pittsburgh.
 
  Rainfall Totals
Hourly Rain 0.00 in
Daily Rain 0.00 in
Monthly Rain 31.95 in
Yearly Rain 31.95 in
Normal Rain, month to date       0.00 in
Normal Rain, year to date 0.00 in
 
 
Weather.com
WeatherUnderground NorthEast Fronts
WeatherUnderground NorthEast Radar
WeatherBug NorthEast Radar
WeatherBug, Peters HS
WPXI Weather
KDKA Weather
WTEA Weather
Intellacast Canonsburg
AccuWeather
Yahoo, McMurray
Twitter, Pittsburgh
Fox53 Radar
Time and Date, Pittsburgh
NOAA Weather Pitt
FilghtStats PIT
NWS Thompsonville
USGS Tides and Temperature at Manasquan
NWS US Radar - Loop
  Local Weather Exchange Network
Station ID

City 
(Click for Map Location)

Neighborhood 
(Click for History)
Last Update (Date & Time)

Temperature
 (°)

Dew
Point (°)
Humidity 
(%)
Wind 
(mph)
from the Wind Gust 
(mph) 
Pressure (in) Hourly
Rain (in)
KPACANON4 Canonsburg Morgan's Point 11/23 05:39:06 44.6 35.0 69 1 ENE 0 29.85 0.00
KPACANON3 Canonsburg Canonsburg Neighborhood Weather 11/23 05:39:50 46.6 38.0 71 0 North 1 30.25 0.00
KPACANON5 Canonsburg Canonsburg 11/23 05:39:53 42.6 35.0 75 0 West 0 30.07 0.00
KPAMCMUR4 McMurray Thompsonville-McMurray 11/23 05:35:04 45.6 32.0 59 0 SSE 0 30.06 0.00
KPACANON6 Canonsburg Sunset Acres, McMurray PA KPACANON6 11/23 05:38:02 47.5 31.0 52 4 SE 0 30.07 0.00
KPAMCMUR3 McMurray St. Benedict the Abbot 11/23 05:39:45 43.0 36.0 76 0 SSW 1 30.06 0.00
KPABRIDG2 Bridgeville Hunting Ridge 11/23 05:30:04 45.9 32.0 57 0 SW 0 28.90 0.00
KPAEIGHT3 Eighty Four Nottingham Twp. 11/23 05:39:50 48.1 28.0 46 8 SSE 8 30.18 0.00
KPAVENET5 Venetia Willamar 11/23 05:32:35 45.5 31.0 56 0 SSW 0 30.00 0.00
KPABRIDG1 Bridgeville Olde Orchard South Fayette Bridgeville 11/23 05:39:58 44.1 33.0 64 0 NW 0 30.03 0.00
KPABETHE4 Bethel Park Bethel Park, PA - Terrasurv 11/23 05:35:45 46.1 31.0 54 1 East 0 30.12 0.00
KPABETHE3 Bethel Park Bethel Park 11/23 05:35:16 44.9 33.0 62 0 North 2 30.12 0.00
KPAWASHI5 Washington Cameron Estates/South Strabane 11/23 05:34:12 46.5 30.0 52 0 ESE 0 30.10 0.00
KPAVENET4 Venetia Sugar Run Road 11/23 05:35:06 43.1 28.0 55 0 West 0 29.90 0.00
KPAMTLEB2 Mount Lebanon Mount Lebanon 11/23 05:39:52 43.7 18.0 35 0 South 0 30.05 0.00
KPAPITTS50 Pittsburgh Dormont 11/23 05:39:59 47.8 32.0 55 4 SE 4 29.83 0.00
KPAPITTS29 Pittsburgh Carrick/Pittsburgh 11/23 05:38:52 45.8 32.0 58 0 SSE 0 30.10 0.00
KPACRAFT2 Crafton Bradford Court 11/23 05:39:51 45.3 40.0 83 0 North 0 29.56 0.00
KPAPITTS58 Pittsburgh Robinson Township 11/23 05:39:58 47.3 32.0 55 2 ENE 2 30.10 0.00
KPAIMPER5 Imperial Imperial 11/23 05:39:57 48.8 33.0 54 0 North 0 30.06 0.00
KPAIMPER1 Imperial Imperial Neighborhood Weather 11/23 05:36:31 48.6 32.0 53 0 South 0 30.08 0.00
KPAIMPER4 Imperial Walden Woods 11/23 05:39:50 49.3 30.0 48 2 South 2 29.74 0.00
KPAPITTS46 Pittsburgh Baldwin 11/23 05:39:58 46.4 32.0 57 0 North 0 30.11 0.00
KPAPITTS62 Pittsburgh Crafton Heights 11/23 05:39:58 46.4 29.0 51 0 South 0 30.02 0.00
KPACLAIR2 Clairton Jefferson Hills 11/23 05:39:56 41.2 34.0 76 0 South 0 30.14 0.00
KPAMOON3 Moon Sonoma Ridge 11/23 05:35:39 46.8 32.0 56 0 SE 1 30.12 0.00
KPABURGS2 Burgsttown Pa Burgettstown PA 11/23 05:33:14 45.3 34.0 64 0 WSW 0 30.00 0.00
KPAMUNHA2 Munhall Lower Gates Manor 11/23 05:33:51 43.7 36.0 75 0 SW 0 30.09 0.00
KPAPITTS56 Pittsburgh Carnegie Mellon University 11/23 05:35:32 48.7 33.0 53 2 SE 4 --- 0.00
KPAPITTS75 Pittsburgh Shadyside 11/23 05:31:01 44.2 38.0 77 0 South 0 30.12 0.00
KPAPITTS33 Pittsburgh Squirrel Hill 11/23 05:30:00 46.9 0.0 0 0 North 0 29.28 0.00
KPAPITTS54 Pittsburgh Bloomfield 11/23 05:39:56 48.4 34.0 58 0 North 0 30.20 0.00
KPAMOONT2 Moon Township Moon Township 11/23 05:34:51 45.9 37.0 70 2 NNE 0 30.13 0.00
KAFJ Washington Official Station 11/23 05:35:00 45.0 28.0 53 0 North --- 30.11 ---
KAGC Pittsburgh Allegheny Co. Official Station 11/23 04:53:00 46.0 26.0 46 6 SSE --- 30.12 ---
KPIT Pittsburgh Official Station 11/23 04:51:00 48.0 32.0 54 4 South --- 30.12 ---
KHLG Wheeling Official Station 11/23 04:53:00 50.0 25.0 38 7 SSW --- 30.11 ---
  Full Advisory Text
No Warnings

11/23/14 4+ 5:40am   - http://weatherstation.wunderground.com/weatherstation/updateweatherstation.php?action=updateraw&ID=KPASMITH2&PASSWORD=&dateutc=2010-07-05+22%3A09%3A33&winddir=SSE&tempf=45.6&windspeedmph=0&humidity=59&dewptf=32.1&baromin=30.06&rainin=0.00&dailyrainin=0.00

Ambient Weather and Weather Underground
 Never base important decisions on this or any weather information obtained from the Internet
Updated Automatically by Ambient Weather's Virtual Weather Station  V14.00

Template updated: 5:35 PM 6/9/2011